DMSP 5D-2 F13 DEB, 40601

Orbit data source: Space-Track

DMSP 5D-2 F13 DEB, 40601 is space debris in SSO originally from a launch on Fri, 24 Mar 1995 UTC launched from the Air Force Western Test Range (AFWTR). Debris objects in space refer to the collection of defunct objects orbiting the Earth. Examples of debris include non-operational satellites, rocket bodies, and fragments generated from explosions, collisions, or faulty payload assembly.

Loading next visibility...
Identifier
40601, 1995-015EY
Orbit
SSO
Country
Flag of USUS
Related business
Manufacturer
Unknown
Mission
Spacecraft
Bus & Motor
Unknown
Mass
Unknown
Launch date (UTC)
1995-03-24 (31 years ago)
Launch vehicle
Unknown
Launch site
Air Force Western Test Range (AFWTR)
Object type
Payload
Rocket body
Debris
Shape & HBR
Unknown shape, 0.1 m
Radar Cross Section
Small (<0.1 m²)

Expand to show TLE details & history
Last TLE update: 23 hours ago

TLE from 23 hours ago
0 DMSP 5D-2 F13 DEB
1 40601U 95015EY  26118.85482583  .00006069  00000-0  16940-2 0  9995
2 40601  98.6470 167.5252 0006735  14.9694 345.1696 14.46587267573132
Epoch: 2026-04-28T20:30Z
TLE epoch observation values (Epoch: 2026-04-28T20:30:56.951Z)
Latitude
0.00001°
Longitude
2.96374°
Altitude
735.137 km
Speed
7.49 km/s
True Right ascension
11h 10m 06s
True Declination
0° 00' 00"
Sunlit
Object was in full shadow at epoch
Visualization orbit readout
Latitude
Unknown
Longitude
Unknown
Altitude
Unknown
Speed
Unknown
Apparent Right ascension
Unknown
Apparent Declination
Unknown
Sunlit
N/A
Visualization observer readout
Local Sidereal Time
02:43:51
Azimuth
Unknown
Elevation
Unknown
Doppler factor
Unknown
Orbital elements
Apogee altitude
738.727 km
Perigee altitude
729.147 km
Semi-major axis
7,112.074 km
Eccentricity
0.00067
Inclination
98.647°
RAAN
167.5252°
Arg. of periapsis
14.9694°
True anomaly
345.14983°
Mean anomaly
345.1696°
Eccentric anomaly
345.15972°
Mean motion
3.61867 °/min
Orbital period
99.48 mins
BSTAR
0.001694

Documentation

Showing up to 5 results
|